Simultaneous Nadir Overpasses (SNOs) Predictions

Prediction of SNOs between GOES-16 and METOP-C Satellite Orbit:

Table of predicted SNOs for the next 14.0 days since TLE Epoch: 9/21/2024
Index Date Time (GOES-16) GOES-16 Lat,Lon METOP-C Lat,Lon Distance(km) Time Diff (sec)
1 09/21/2024 14:35:50 -0.06, -75.21 0.24, -76.51 148.72 80
2 09/22/2024 14:17:52 -0.05, -75.21 -0.90, -71.52 420.74 80
3 09/24/2024 02:34:13 0.05, -75.20 -0.12, -76.12 103.97 80
4 09/25/2024 02:16:14 0.05, -75.21 0.96, -71.12 465.85 80
5 09/26/2024 14:32:26 -0.05, -75.23 0.03, -75.68 51.04 80
6 09/29/2024 02:33:28 0.05, -75.25 0.05, -75.28 4.00 80
7 10/01/2024 14:29:00 -0.05, -75.30 -0.12, -74.84 52.28 80
8 10/03/2024 02:50:41 0.05, -75.32 -0.87, -79.44 469.70 80
9 10/04/2024 02:28:22 0.05, -75.34 0.24, -74.44 101.86 20
